Miscellaneous Local Product
Issued by NWS Hastings, NE

Home | Current Version | Previous Version | Graphics & Text | Print | Product List | Glossary On
Versions: 1 2 3 4 5 6 7 8 9 10 11 12 13 14 15 16 17 18 19 20 21 22 23 24 25 26 27 28 29 30 31 32 33 34 35 36 37 38 39 40 41 42 43 44 45 46 47 48 49 50
000
AXUS43 KGID 302302
MISGRI

GID CWA HOURLY WEATHER ROUNDUP
NATIONAL WEATHER SERVICE HASTINGS NE
600 PM CDT THU OCT 30 2014

NOTE: "FAIR" INDICATES FEW OR NO CLOUDS BELOW 12,000 FEET WITH NO
SIGNIFICANT WEATHER AND/OR OBSTRUCTIONS TO VISIBILITY.

...SOUTH CENTRAL NEBRASKA...

CITY           SKY/WX    TMP DP  RH WIND       PRES   REMARKS
GRAND ISLAND   CLEAR     57  35  43 N24G30    30.24R
HASTINGS       CLEAR     58  32  37 N22G33    30.22R
KEARNEY        CLEAR     57  30  35 NW22      30.25R
ORD            CLEAR     52  33  48 N22G29    30.27R
YORK           CLEAR     55  37  50 N17G30    30.21R
AURORA         CLEAR     56  33  41 N18G26    30.22R
LEXINGTON      CLEAR     60  32  35 N13G21    30.27R
HOLDREGE       CLEAR     59  31  33 N16G24    30.24R
HEBRON         CLEAR     60  32  34 N14G23    30.18R

...NEBRASKA PANHANDLE...

CITY           SKY/WX    TMP DP  RH WIND       PRES   REMARKS
CHADRON        CLEAR     55  34  45 NE13      30.34R
ALLIANCE       CLEAR     58  33  39 N8        30.31R
SCOTTSBLUFF    CLEAR     61  26  26 N12       30.31R
SIDNEY         CLEAR     59  31  34 N7        30.33R

...WESTERN AND NORTH CENTRAL NEBRASKA...

CITY           SKY/WX    TMP DP  RH WIND       PRES   REMARKS
VALENTINE      CLEAR     48  31  51 N15       30.36R
AINSWORTH      CLEAR     46  32  57 N18G25    30.35R
ONEILL         CLOUDY    46  37  71 N22G28    30.33R
BROKEN BOW     CLEAR     55  34  45 N22G29    30.28R
IMPERIAL       CLEAR     62  29  28 N16       30.29R
NORTH PLATTE   CLEAR     59  31  34 N17G25    30.29R
MCCOOK         CLEAR     64  30  27 N18       30.27R

...EASTERN NEBRASKA...

CITY           SKY/WX    TMP DP  RH WIND       PRES   REMARKS
NORFOLK        CLOUDY    46  37  71 N17G33    30.26R
SO SIOUX CITY  CLOUDY    51  41  68 NW18G31   30.21R
TEKAMAH        CLEAR     55  40  56 NW21G30   30.18R
ALBION         CLEAR     48  34  57 N17G29    30.28R
OMAHA EPPLEY   PTCLDY    56  39  53 NW16G31   30.15R
OFFUTT AFB     CLEAR     57  40  52 NW14G29   30.14R
MILLARD        CLEAR     57  40  51 NW13G28   30.16R
LINCOLN        CLEAR     58  37  45 N17G30    30.18R
NEBRASKA CITY  CLEAR     57  34  41 N15G21    30.13R
BEATRICE       CLEAR     58  40  50 N20G25    30.16R
FALLS CITY     CLEAR     61  40  45 N15G29    30.10R

...NORTHERN KANSAS...

CITY           SKY/WX    TMP DP  RH WIND       PRES   REMARKS
GOODLAND       CLEAR     63  25  23 N16       30.30R
HILL CITY      CLEAR     65  30  27 N16       30.24R
NORTON         CLEAR     63  23  22 N14       30.24R
PHILLIPSBURG   CLEAR     66  32  28 N15G24    30.23R HAZE
SMITH CENTER   CLEAR     63  30  29 N20G31    30.21R
BELOIT         CLEAR     64  32  29 NW12      30.18R
HAYS           CLEAR     64  30  27 N18G24    30.22R
RUSSELL        CLEAR     64  32  30 N22G30    30.19R
CONCORDIA      CLEAR     63  35  35 N16G23    30.17R
SALINA         CLEAR     66  35  31 N17G26    30.16R
TOPEKA         CLEAR     64  40  41 N12       30.09R



USA.gov is the U.S. government's official web portal to all federal, state and local government web resources and services.